[Iaude] MPEC K103: 2024 KL [a=0.89,e=0.32,i=9.6,H=23.7]

mpec at cfa.harvard.edu mpec at cfa.harvard.edu
Tue May 28 03:17:25 EDT 2024


M.P.E.C. 2024-K103                                 Issued 2024 May 28, 07:16 UT

     The Minor Planet Electronic Circulars contain information on unusual
         minor planets, routine data on comets and natural satellites,
         and occasional editorial announcements.  They are published
    on behalf of Division F of the International Astronomical Union by the
          Minor Planet Center, Smithsonian Astrophysical Observatory,
                          Cambridge, MA 02138, U.S.A.
			  
             Prepared using the Tamkin Foundation Computer Network

                              MPC at CFA.HARVARD.EDU
            URL https://www.minorplanetcenter.net/    ISSN 1523-6714

                                    2024 KL                                     


Observations:
     K24K00L*1C2024 05 26.35922416 29 53.167+33 53 29.15         20.98GVEK103G96
     K24K00L 1C2024 05 26.36442016 29 50.672+33 53 47.47         20.86GVEK103G96
     K24K00L 1C2024 05 26.36961916 29 48.260+33 54 06.19         20.37GVEK103G96
     K24K00L 1C2024 05 26.37481616 29 45.827+33 54 24.23         20.71GVEK103G96
     K24K00L KC2024 05 26.41189916 29 28.450+33 56 34.69         20.76GVEK103I52
     K24K00L KC2024 05 26.41493416 29 27.028+33 56 45.13         20.77GVEK103I52
     K24K00L KC2024 05 26.41797816 29 25.616+33 56 55.97         20.75GVEK103I52
     K24K00L KC2024 05 26.42102616 29 24.191+33 57 06.62         20.57GVEK103I52
     K24K00L 6C2024 05 27.06537 16 24 34.20 +34 36 17.8          20.8 GVEK103Z84
     K24K00L 6C2024 05 27.07585 16 24 28.98 +34 36 55.1          21.0 GVEK103Z84
     K24K00L KC2024 05 27.17909616 23 46.828+34 43 11.78         21.16GVEK103I52
     K24K00L KC2024 05 27.18212516 23 45.326+34 43 23.45         20.74GVEK103I52
     K24K00L KC2024 05 27.18515216 23 43.829+34 43 34.97         20.83GVEK103I52
     K24K00L KC2024 05 27.18816916 23 42.317+34 43 46.27         20.60GVEK103I52
     K24K00L  C2024 05 27.29296616 22 49.050+34 50 21.61         20.9 GVEK103H01
     K24K00L  C2024 05 27.30002116 22 45.450+34 50 47.62         20.7 GVEK103H01
     K24K00L  C2024 05 27.31089416 22 39.880+34 51 27.66         20.3 GVEK103H01
     K24K00L  C2024 05 27.31764016 22 36.429+34 51 52.34         20.4 GVEK103H01
     K24K00L  C2024 05 28.26667616 14 44.959+35 50 31.25         20.4 GVEK103H01
     K24K00L  C2024 05 28.27606316 14 39.731+35 51 06.57         20.7 GVEK103H01
     K24K00L  C2024 05 28.28281116 14 35.966+35 51 31.88         20.5 GVEK103H01
     K24K00L  C2024 05 28.29415916 14 29.619+35 52 14.33         20.6 GVEK103H01

Observer details:
G96 Mt. Lemmon Survey.  Observer K. W. Wierzchos.  Measurers T. Beuden, V. F.
    Carvajal, D. Fay, J. B. Fazekas, D. C. Fuls, A. R. Gibbs, A. D. Grauer, H.
    Groeller, J. K. Hogan, R. A. Kowalski, S. M. Larson, G. J. Leonard, D.
    Rankin, R. L. Seaman, F. C. Shelly, K. W. Wierzchos.  1.5-m reflector +
    10K CCD.
H01 Magdalena Ridge Observatory, Socorro.  Observers W. H. Ryan, E. V. Ryan.
    Measurer W. H. Ryan.  2.4-m f/8.9 Ritchey-Chretien + CCD.
I52 Steward Observatory, Mt. Lemmon Station.  Observer R. A. Kowalski.
    Measurers T. Beuden, V. F. Carvajal, D. Fay, J. B. Fazekas, D. C. Fuls, A.
    R. Gibbs, A. D. Grauer, H. Groeller, J. K. Hogan, R. A. Kowalski, S. M.
    Larson, G. J. Leonard, D. Rankin, R. L. Seaman, F. C. Shelly, K. W.
    Wierzchos.  1.0-m prime focus + CCD.
Z84 Calar Alto-Schmidt.  Observers M. Micheli, R. Kresken.  Measurers R.
    Kresken, M. Micheli, F. Ocana, L. Conversi.  0.8-m f/3 Schmidt + CCD.

Orbital elements:
2024 KL                                                  Earth MOID = 0.0448 AU
Epoch 2024 Mar. 31.0 TT = JDT 2460400.5                 MPC                     
M 176.90546              (2000.0)            P               Q                  
n   1.16841093     Peri.  293.71732     +0.86860815     -0.46665655             
a   0.8927687      Node    94.46601     +0.49325499     +0.78237567             
e   0.3194407      Incl.    9.61898     +0.04711041     +0.41245603             
P   0.84           H   23.76          G   0.15           U   6                  
Residuals in seconds of arc
240526 G96  0.3+  0.3+    240527 Z84  0.1-  0.1-    240527 H01  0.0   0.1+
240526 G96  0.3-  0.1+    240527 Z84  0.2-  0.3-    240527 H01  0.0   0.1+
240526 G96  0.0   0.3+    240527 I52  0.0   0.1-    240528 H01  0.1+  0.0
240526 G96  0.1+  0.1-    240527 I52  0.0   0.1-    240528 H01  0.1+  0.0
240526 I52  0.0   0.1-    240527 I52  0.0   0.2-    240528 H01  0.1+  0.1+
240526 I52  0.0   0.2-    240527 I52  0.2-  0.6-    240528 H01  0.1-  0.1+
240526 I52  0.1+  0.0     240527 H01  0.0   0.1+
240526 I52  0.1+  0.0     240527 H01  0.1+  0.1+

Ephemeris:
2024 KL                  a,e,i = 0.89, 0.32, 10                  q = 0.6076
Date    TT    R. A. (2000) Decl.     Delta      r    Elong.  Phase     V
2024 04 28    17 43 09.6 +14 11 36   0.2425  1.1561   122.7    47.1    22.8
...
2024 05 13    17 26 47.3 +22 37 59   0.1675  1.1226   128.6    44.7    21.8
...
2024 05 21    17 00 50.7 +28 50 11   0.1318  1.0985   128.2    46.4    21.3
...
2024 05 27    16 25 06.7 +34 32 21   0.1083  1.0777   124.1    51.1    21.0
2024 05 28    16 17 01.6 +35 33 53   0.1048  1.0740   123.0    52.3    20.9
2024 05 29    16 08 09.5 +36 36 05   0.1014  1.0702   121.7    53.7    20.9
...
2024 06 04    14 54 12.5 +42 24 51   0.08423 1.0463   110.0    65.7    20.8
...
2024 06 12    12 20 00.0 +43 01 43   0.07420 1.0108    84.3    91.5    21.4
...
2024 06 27    08 58 20.5 +21 16 49   0.1036  0.9343    35.7   140.6    25.6

A. U. Tomatic                (C) Copyright 2024 MPC           M.P.E.C. 2024-K103





More information about the Iaude mailing list